[keps] orb08017.amsat
Ray Hoad
r.hoad at att.net
Thu Jan 17 18:14:18 PST 2008
SB KEPS @ AMSAT $ORB08017.O
Orbital Elements 08017.OSCAR
HR AMSAT ORBITAL ELEMENTS FOR OSCAR SATELLITES
FROM WA5QGD FORT WORTH,TX January 17, 2008
Send Subscribe/unsubscribe to KEPS at
http://www.amsat.org/mailman/listinfo/keps
BID: ORB08017.O
TO ALL RADIO AMATEURS BT
Satellite: AO-07
Catalog number: 07530
Epoch time: 08017.18247696
Element set: 79
Inclination: 101.4876 deg
RA of node: 053.6554 deg
Eccentricity: 0.0012010
Arg of perigee: 197.9993 deg
Mean anomaly: 162.0652 deg
Mean motion: 12.53573355 rev/day
Decay rate: -2.7e-07 rev/day^2
Epoch rev: 51793
Checksum: 310
Satellite: AO-10
Catalog number: 14129
Epoch time: 08016.75822671
Element set: 462
Inclination: 025.9390 deg
RA of node: 235.2993 deg
Eccentricity: 0.6038443
Arg of perigee: 090.6802 deg
Mean anomaly: 334.3615 deg
Mean motion: 02.05869298 rev/day
Decay rate: 2.20e-06 rev/day^2
Epoch rev: 18496
Checksum: 313
Satellite: UO-11
Catalog number: 14781
Epoch time: 08017.23145762
Element set: 572
Inclination: 098.1732 deg
RA of node: 048.8487 deg
Eccentricity: 0.0008780
Arg of perigee: 196.7614 deg
Mean anomaly: 163.3310 deg
Mean motion: 14.79609228 rev/day
Decay rate: -2.48e-06 rev/day^2
Epoch rev: 28138
Checksum: 321
Satellite: RS-15
Catalog number: 23439
Epoch time: 08015.48828039
Element set: 0146
Inclination: 064.8189 deg
RA of node: 023.5918 deg
Eccentricity: 0.0151917
Arg of perigee: 152.0576 deg
Mean anomaly: 208.8607 deg
Mean motion: 11.27551839 rev/day
Decay rate: -3.9e-07 rev/day^2
Epoch rev: 53763
Checksum: 329
Satellite: FO-29
Catalog number: 24278
Epoch time: 08017.22246399
Element set: 683
Inclination: 098.5796 deg
RA of node: 313.4161 deg
Eccentricity: 0.0349784
Arg of perigee: 248.8997 deg
Mean anomaly: 107.4427 deg
Mean motion: 13.52935236 rev/day
Decay rate: 6.5e-07 rev/day^2
Epoch rev: 56384
Checksum: 361
Satellite: SO-33
Catalog number: 25509
Epoch time: 08017.57974147
Element set: 112
Inclination: 031.4287 deg
RA of node: 093.5664 deg
Eccentricity: 0.0355053
Arg of perigee: 141.7835 deg
Mean anomaly: 220.8522 deg
Mean motion: 14.28192039 rev/day
Decay rate: 1.74e-06 rev/day^2
Epoch rev: 48192
Checksum: 305
Satellite: AO-40
Catalog number: 26609
Epoch time: 08015.93475078
Element set: 993
Inclination: 007.3058 deg
RA of node: 102.2238 deg
Eccentricity: 0.7929334
Arg of perigee: 042.2401 deg
Mean anomaly: 356.4909 deg
Mean motion: 01.25582493 rev/day
Decay rate: -2.89e-06 rev/day^2
Epoch rev: 3311
Checksum: 309
Satellite: VO-52
Catalog number: 28650
Epoch time: 08017.02901249
Element set: 831
Inclination: 097.8087 deg
RA of node: 087.6867 deg
Eccentricity: 0.0026106
Arg of perigee: 277.5671 deg
Mean anomaly: 082.2615 deg
Mean motion: 14.81410662 rev/day
Decay rate: 3.33e-06 rev/day^2
Epoch rev: 14607
Checksum: 308
Satellite: PO-63
Catalog number: 29712
Epoch time: 08017.24842568
Element set: 104
Inclination: 097.8974 deg
RA of node: 078.1647 deg
Eccentricity: 0.0014752
Arg of perigee: 151.1544 deg
Mean anomaly: 209.0488 deg
Mean motion: 14.79988020 rev/day
Decay rate: 6.52e-06 rev/day^2
Epoch rev: 5499
Checksum: 336
/EX
SB KEPS @ AMSAT $ORB08017.D
Orbital Elements 08017.MICROS
HR AMSAT ORBITAL ELEMENTS FOR THE MICROSATS
FROM WA5QGD FORT WORTH,TX January 17, 2008
Send Subscribe/unsubscribe to KEPS at
http://www.amsat.org/mailman/listinfo/keps
BID: ORB08017.D
TO ALL RADIO AMATEURS BT
Satellite: AO-16
Catalog number: 20439
Epoch time: 08016.51607680
Element set: 228
Inclination: 098.2149 deg
RA of node: 004.5126 deg
Eccentricity: 0.0009961
Arg of perigee: 273.1815 deg
Mean anomaly: 086.8240 deg
Mean motion: 14.31781683 rev/day
Decay rate: 1.3e-07 rev/day^2
Epoch rev: 93907
Checksum: 301
Satellite: LO-19
Catalog number: 20442
Epoch time: 08017.42722055
Element set: 152
Inclination: 098.1913 deg
RA of node: 014.3285 deg
Eccentricity: 0.0010947
Arg of perigee: 266.2587 deg
Mean anomaly: 093.7371 deg
Mean motion: 14.32021364 rev/day
Decay rate: 7.4e-07 rev/day^2
Epoch rev: 93935
Checksum: 291
Satellite: AO-27
Catalog number: 22825
Epoch time: 08015.39381716
Element set: 0875
Inclination: 098.3640 deg
RA of node: 341.3613 deg
Eccentricity: 0.0008312
Arg of perigee: 002.0665 deg
Mean anomaly: 358.0542 deg
Mean motion: 14.29227221 rev/day
Decay rate: -1.26e-06 rev/day^2
Epoch rev: 74580
Checksum: 287
Satellite: IO-26
Catalog number: 22826
Epoch time: 08017.08443362
Element set: 577
Inclination: 098.3565 deg
RA of node: 343.9634 deg
Eccentricity: 0.0008985
Arg of perigee: 352.9424 deg
Mean anomaly: 007.1640 deg
Mean motion: 14.29475418 rev/day
Decay rate: -1.1e-07 rev/day^2
Epoch rev: 74613
Checksum: 318
Satellite: PO-28
Catalog number: 22829
Epoch time: 08017.42533421
Element set: 851
Inclination: 098.3452 deg
RA of node: 345.4211 deg
Eccentricity: 0.0009236
Arg of perigee: 323.1970 deg
Mean anomaly: 036.8575 deg
Mean motion: 14.30178123 rev/day
Decay rate: 4.6e-07 rev/day^2
Epoch rev: 74643
Checksum: 292
Satellite: GO-32
Catalog number: 25397
Epoch time: 08015.77048361
Element set: 0502
Inclination: 098.3863 deg
RA of node: 058.3515 deg
Eccentricity: 0.0001092
Arg of perigee: 017.1509 deg
Mean anomaly: 342.9687 deg
Mean motion: 14.23137290 rev/day
Decay rate: -2.0e-08 rev/day^2
Epoch rev: 49439
Checksum: 302
Satellite: MO-46
Catalog number: 26548
Epoch time: 08016.92513892
Element set: 999
Inclination: 064.5564 deg
RA of node: 241.4009 deg
Eccentricity: 0.0011789
Arg of perigee: 344.7552 deg
Mean anomaly: 015.3148 deg
Mean motion: 14.83219390 rev/day
Decay rate: -2.5e-07 rev/day^2
Epoch rev: 39523
Checksum: 325
Satellite: NO-44
Catalog number: 26931
Epoch time: 08017.32272770
Element set: 782
Inclination: 067.0546 deg
RA of node: 315.8743 deg
Eccentricity: 0.0004830
Arg of perigee: 268.8449 deg
Mean anomaly: 091.2111 deg
Mean motion: 14.29510049 rev/day
Decay rate: 1.83e-06 rev/day^2
Epoch rev: 32870
Checksum: 299
Satellite: SO-50
Catalog number: 27607
Epoch time: 08017.43606364
Element set: 506
Inclination: 064.5576 deg
RA of node: 154.4853 deg
Eccentricity: 0.0077667
Arg of perigee: 309.7975 deg
Mean anomaly: 049.6316 deg
Mean motion: 14.71319746 rev/day
Decay rate: 3.3e-07 rev/day^2
Epoch rev: 27264
Checksum: 332
Satellite: CO-55
Catalog number: 27844
Epoch time: 08017.22889534
Element set: 213
Inclination: 098.7178 deg
RA of node: 027.5927 deg
Eccentricity: 0.0009703
Arg of perigee: 190.1575 deg
Mean anomaly: 169.9393 deg
Mean motion: 14.20555014 rev/day
Decay rate: 3.1e-07 rev/day^2
Epoch rev: 23586
Checksum: 323
Satellite: CO-57
Catalog number: 27848
Epoch time: 08015.51607635
Element set: 0168
Inclination: 098.7176 deg
RA of node: 025.0336 deg
Eccentricity: 0.0009347
Arg of perigee: 200.2167 deg
Mean anomaly: 159.8619 deg
Mean motion: 14.20367617 rev/day
Decay rate: 7.0e-08 rev/day^2
Epoch rev: 23559
Checksum: 320
Satellite: AO-51
Catalog number: 28375
Epoch time: 08017.14821987
Element set: 8
Inclination: 098.0874 deg
RA of node: 050.1459 deg
Eccentricity: 0.0083139
Arg of perigee: 254.4080 deg
Mean anomaly: 104.7920 deg
Mean motion: 14.40593992 rev/day
Decay rate: 6.0e-08 rev/day^2
Epoch rev: 18651
Checksum: 310
Satellite: CO-56
Catalog number: 28941
Epoch time: 08017.19221214
Element set: 764
Inclination: 098.1060 deg
RA of node: 108.2198 deg
Eccentricity: 0.0194116
Arg of perigee: 230.0153 deg
Mean anomaly: 128.3913 deg
Mean motion: 15.48536176 rev/day
Decay rate: 2.6941e-04 rev/day^2
Epoch rev: 10645
Checksum: 298
Satellite: HO-59
Catalog number: 29484
Epoch time: 08017.30486302
Element set: 44
Inclination: 098.2560 deg
RA of node: 107.2943 deg
Eccentricity: 0.0141510
Arg of perigee: 207.5224 deg
Mean anomaly: 151.8503 deg
Mean motion: 15.70645540 rev/day
Decay rate: 8.1211e-04 rev/day^2
Epoch rev: 7445
Checksum: 282
Satellite: NO-61
Catalog number: 29664
Epoch time: 07359.16654419
Element set: 738
Inclination: 051.6179 deg
RA of node: 150.0690 deg
Eccentricity: 0.0003189
Arg of perigee: 248.8461 deg
Mean anomaly: 111.8136 deg
Mean motion: 16.51627846 rev/day
Decay rate: 1.4620719e-01 rev/day^2
Epoch rev: 5877
Checksum: 345
Satellite: CP4
Catalog number: 31122
Epoch time: 08017.26182203
Element set: 237
Inclination: 098.0632 deg
RA of node: 088.3676 deg
Eccentricity: 0.0086876
Arg of perigee: 081.0481 deg
Mean anomaly: 280.0517 deg
Mean motion: 14.55077487 rev/day
Decay rate: 5.52e-06 rev/day^2
Epoch rev: 3998
Checksum: 309
Satellite: CP3
Catalog number: 31128
Epoch time: 08017.17197355
Element set: 232
Inclination: 098.0610 deg
RA of node: 086.9046 deg
Eccentricity: 0.0104022
Arg of perigee: 084.9470 deg
Mean anomaly: 276.3607 deg
Mean motion: 14.51905406 rev/day
Decay rate: -4.6e-07 rev/day^2
Epoch rev: 3987
Checksum: 291
Satellite: LIBERT
Catalog number: 31129
Epoch time: 08017.22422361
Element set: 677
Inclination: 098.0591 deg
RA of node: 086.9792 deg
Eccentricity: 0.0103393
Arg of perigee: 084.4777 deg
Mean anomaly: 276.8182 deg
Mean motion: 14.51995751 rev/day
Decay rate: 3.39e-06 rev/day^2
Epoch rev: 3986
Checksum: 334
/EX
SB KEPS @ AMSAT $ORB08017.W
Orbital Elements 08017.WEATHER
HR AMSAT ORBITAL ELEMENTS FOR WEATHER SATELLITES
FROM WA5QGD FORT WORTH,TX January 17, 2008
Send Subscribe/unsubscribe to KEPS at
http://www.amsat.org/mailman/listinfo/keps
BID: ORB08017.W
TO ALL RADIO AMATEURS BT
Satellite: NOAA-10
Catalog number: 16969
Epoch time: 08017.10898942
Element set: 968
Inclination: 098.7348 deg
RA of node: 039.2921 deg
Eccentricity: 0.0011609
Arg of perigee: 265.2724 deg
Mean anomaly: 094.7144 deg
Mean motion: 14.27347243 rev/day
Decay rate: -8.8e-07 rev/day^2
Epoch rev: 10974
Checksum: 337
Satellite: NOAA-11
Catalog number: 19531
Epoch time: 08017.26644336
Element set: 2
Inclination: 098.8025 deg
RA of node: 108.7009 deg
Eccentricity: 0.0011902
Arg of perigee: 138.0364 deg
Mean anomaly: 222.1723 deg
Mean motion: 14.14862288 rev/day
Decay rate: -2.18e-06 rev/day^2
Epoch rev: 99642
Checksum: 283
